User: anonymous   Login
Location: Unspecified
(0.0000°N, 0.0000°E)
Time: 04:01:08
(UTC+00:00)
Language:

TBA - TO BE ASSIGNED - Orbit

View from above orbital plane
View from above orbital plane
View from above satellite
View from above satellite

Ground track
Ground track

The orbit is defined by the following mean orbital elements,

1 67915U          26145.45421913 +.00000000 +00000-0 +46014-3 0 00006
2 67915  43.0018 171.6058 0001618 275.1571  84.9096 15.27587541    09
Epoch (UTC): 25 May 2026 10:54:04
Eccentricity: 0.0001618
inclination: 43.0018°
perigee height: 482 km
apogee height: 484 km
right ascension of ascending node: 171.6058°
argument of perigee: 275.1571°
revolutions per day: 15.27587541
mean anomaly at epoch: 84.9096°

The dashed part of the orbit path shows where the satellite is in the earth's shadow,  

DLR